Orbital Elements at Epoch 2459000.5 (2020-May-31.0) TDB
Reference: JPL 17 (heliocentric ecliptic J2000)
Element | Value | Uncertainty (1-sigma) | Units |
e | .3367847253966891 | 3.6122e-08 | |
a | 2.280510678317463 | 1.1488e-08 | au |
q | 1.512469515756099 | 8.2398e-08 | au |
i | 21.72282043166886 | 8.3761e-06 | deg |
node | 3.438753788878103 | 1.033e-05 | deg |
peri | 62.5535689599068 | 1.6805e-05 | deg |
M | 193.3673222200386 | 1.4232e-05 | deg |
tp | 2459582.742985018104 (2022-Jan-03.24298502) | 5.2506e-05 | TDB |
period | 1257.901375643164 3.44 | 9.5046e-06 2.602e-08 | d yr |
n | .2861909581869503 | 2.1624e-09 | deg/d |
Q | 3.048551840878827 | 1.5356e-08 | au |
|
| | Orbit Determination Parameters
Additional Information
|